This is the latest recevied weather packets stored in our database for station/object RUSSARO. If no packets are shown the sender has not sent any weather packets the latest 10 day(s).
| Time | Temp. | Humidity | Pressure | Rain* | Wind** | Luminosity | Snow |
|---|---|---|---|---|---|---|---|
| 1777427210 | 1.11° C | 63% | 1025.1 hPa | 0 mm | - | - | - |
| 1777426009 | 1.67° C | 63% | 1025 hPa | 0 mm | - | - | - |
| 1777424810 | 1.67° C | 61% | 1024.9 hPa | 0 mm | - | - | - |
| 1777423609 | 1.67° C | 61% | 1024.8 hPa | 0 mm | - | - | - |
| 1777422410 | 2.22° C | 62% | 1024.7 hPa | 0 mm | - | - | - |
| 1777421209 | 2.22° C | 64% | 1024.7 hPa | 0 mm | - | - | - |
| 1777420009 | 2.22° C | 60% | 1024.7 hPa | 0 mm | - | - | - |
| 1777418809 | 2.78° C | 55% | 1024.5 hPa | 0 mm | - | - | - |
| 1777417609 | 2.78° C | 57% | 1024.5 hPa | 0 mm | - | - | - |
| 1777416409 | 2.78° C | 57% | 1024.4 hPa | 0 mm | - | - | - |
| 1777415211 | 2.78° C | 56% | 1024.3 hPa | 0 mm | - | - | - |
| 1777414009 | 2.78° C | 54% | 1024.2 hPa | 0 mm | - | - | - |
| 1777412809 | 2.78° C | 56% | 1024.1 hPa | 0 mm | - | - | - |
| 1777411609 | 3.33° C | 53% | 1024 hPa | 0 mm | - | - | - |
| 1777410409 | 3.33° C | 51% | 1023.9 hPa | 0 mm | - | - | - |
| 1777409209 | 3.33° C | 50% | 1023.9 hPa | 0 mm | - | - | - |
| 1777408009 | 3.33° C | 52% | 1023.8 hPa | 0 mm | - | - | - |
| 1777406808 | 3.89° C | 51% | 1023.6 hPa | 0 mm | - | - | - |
| 1777405608 | 4.44° C | 51% | 1023.3 hPa | 0 mm | - | - | - |
| 1777404408 | 5° C | 48% | 1023.1 hPa | 0 mm | - | - | - |
| 1777403208 | 5° C | 54% | 1022.8 hPa | 0 mm | - | - | - |
| 1777402008 | 5° C | 49% | 1022.5 hPa | 0 mm | - | - | - |
| 1777400808 | 5.56° C | 50% | 1022.3 hPa | 0 mm | - | - | - |
| 1777399608 | 5.56° C | 44% | 1022 hPa | 0 mm | - | - | - |
| 1777398408 | 5.56° C | 47% | 1021.7 hPa | 0 mm | - | - | - |
* Rain latest hour (hover to see other rain measurements)
** Current wind speed in m/s (hover to see current wind gust speed)